📊 Raw Sensor Data

Showing records 51526 to 51550 of 85,149 total

ID Distance (ft) Battery V Battery A Int Temp (°F) Int Humid (%) Ext Temp (°F) Solar V RSSI SNR Time Stamp
33636 14.8 3.96 -5 46 38 47 0.00 -76 8 02/28/2025 02:15 AM
33635 14.8 3.90 -5 46 38 48 0.00 -76 7 02/28/2025 02:00 AM
33634 14.8 3.90 -5 46 38 48 0.00 -76 8 02/28/2025 01:45 AM
33633 14.9 3.96 -5 46 38 48 0.10 -76 8 02/28/2025 01:30 AM
33632 14.8 3.91 -5 47 38 48 0.00 -77 8 02/28/2025 01:15 AM
33631 14.8 3.96 -5 47 38 49 0.00 -76 8 02/28/2025 01:00 AM
33630 14.8 3.91 -5 47 38 50 0.00 -76 8 02/28/2025 12:45 AM
33629 14.9 3.96 -5 47 38 49 0.00 -77 8 02/28/2025 12:30 AM
33628 14.9 3.91 -5 47 38 50 0.10 -76 8 02/28/2025 12:15 AM
33627 14.9 3.97 -5 46 39 49 0.00 -76 8 02/28/2025 12:00 AM
33626 14.9 3.91 -5 46 38 46 0.00 -76 8 02/27/2025 11:45 PM
33625 14.9 3.91 -5 47 39 49 0.10 -76 8 02/27/2025 11:30 PM
33624 14.8 3.91 -5 46 39 47 0.00 -76 8 02/27/2025 11:15 PM
33623 14.9 3.91 -5 47 39 49 0.10 -76 8 02/27/2025 11:00 PM
33622 14.9 3.97 -5 47 39 50 0.00 -76 9 02/27/2025 10:45 PM
33621 14.9 3.91 -5 48 39 51 0.10 -77 8 02/27/2025 10:30 PM
33620 14.9 3.97 -5 49 39 50 0.00 -76 8 02/27/2025 10:15 PM
33619 14.9 3.92 -5 49 39 51 0.00 -77 7 02/27/2025 10:00 PM
33618 14.8 3.92 -5 50 39 53 0.00 -76 8 02/27/2025 09:45 PM
33617 14.9 3.92 -5 50 39 52 0.00 -75 8 02/27/2025 09:30 PM
33616 14.9 3.97 -5 50 39 53 0.10 -75 8 02/27/2025 09:15 PM
33615 14.9 3.92 -5 51 40 53 0.00 -75 8 02/27/2025 09:00 PM
33614 14.9 3.92 -5 52 39 55 0.00 -75 8 02/27/2025 08:45 PM
33613 14.9 3.98 -5 52 40 54 0.00 -75 8 02/27/2025 08:30 PM
33612 15.0 3.92 -5 52 40 56 0.00 -75 8 02/27/2025 08:15 PM